contact:dominique.lefevre@mio.osupytheas.fr, maurice.libes@osupytheas.fr, didier.mallarino@osupytheas.fr
Project:EMSO http://www.emso-fr.org/EMSO-France
Depth: 2436.0 m
Title:EMSO Ligure Ouest : Data MII capteur AQUADOPP
Date,Latitude,Longitude,X_East,Y_North,Z_Up,Amplitude_X,Amplitude_Y,Amplitude_Z,Batterie,SoundSpeed,Heading,Pitch,Roll,Pressure,TIS,Speed,Direction
, degrees North, degrees East, m.s-1, m.s-1,m.s-1, 1, 1, 1, Volt, m.s-1, degree, degree, degree, dbar, degree_C, m.s-1, degree
2023-03-15T00:04:03,42.805,6.029,-0.037,-0.001,0.002,107.0,107.0,106.0,13.4,1505.2,330.7,-0.8,1.8,2471.397,13.28,0.037,268.5
2023-03-15T00:07:03,42.805,6.029,-0.041,0.005,-0.037,107.0,106.0,106.0,13.4,1505.2,340.9,-0.8,1.8,2471.354,13.28,0.041,277.0
2023-03-15T00:10:03,42.805,6.029,-0.035,-0.014,-0.018,107.0,106.0,104.0,13.4,1505.2,318.7,-0.8,1.8,2471.355,13.29,0.037,248.2
2023-03-15T00:13:03,42.805,6.029,-0.036,-0.004,-0.034,108.0,106.0,105.0,13.4,1505.2,329.0,-0.7,1.8,2471.362,13.29,0.036,263.7
2023-03-15T00:16:03,42.805,6.029,-0.031,0.023,-0.027,108.0,107.0,103.0,13.4,1505.2,333.8,-0.8,1.8,2471.336,13.29,0.038,306.6
2023-03-15T00:19:03,42.805,6.029,-0.024,0.007,-0.016,108.0,106.0,105.0,13.4,1505.2,340.6,-0.7,1.8,2471.316,13.29,0.025,286.3
2023-03-15T00:22:03,42.805,6.029,-0.022,-0.006,-0.005,107.0,108.0,105.0,13.4,1505.2,333.0,-0.8,1.8,2471.325,13.29,0.022,254.7
2023-03-15T00:25:03,42.805,6.029,-0.063,0.0,-0.04,107.0,106.0,104.0,13.3,1505.2,335.1,-0.8,1.8,2471.313,13.29,0.062,270.0
2023-03-15T00:28:03,42.805,6.029,-0.041,0.033,-0.015,106.0,107.0,104.0,13.4,1505.2,339.1,-0.8,1.8,2471.355,13.29,0.052,308.8
2023-03-15T00:31:03,42.805,6.029,-0.046,0.011,-0.038,106.0,105.0,105.0,13.3,1505.2,329.5,-0.8,1.8,2471.323,13.29,0.047,283.4
2023-03-15T00:34:03,42.805,6.029,-0.024,0.011,0.0,108.0,108.0,105.0,13.3,1505.2,332.5,-0.7,1.8,2471.332,13.29,0.026,294.6
2023-03-15T00:37:03,42.805,6.029,-0.024,0.004,-0.001,106.0,105.0,105.0,13.3,1505.2,315.0,-0.7,1.8,2471.313,13.29,0.024,279.5
2023-03-15T00:40:03,42.805,6.029,-0.016,0.026,-0.021,109.0,106.0,105.0,13.4,1505.2,324.3,-0.8,1.8,2471.275,13.29,0.03,328.4
2023-03-15T00:43:03,42.805,6.029,-0.042,0.015,-0.029,107.0,106.0,103.0,13.4,1505.2,332.6,-0.7,1.8,2471.324,13.29,0.044,289.6
2023-03-15T00:46:03,42.805,6.029,-0.042,0.004,-0.002,107.0,106.0,104.0,13.3,1505.2,330.2,-0.7,1.8,2471.325,13.29,0.042,275.4
2023-03-15T00:49:03,42.805,6.029,-0.037,0.004,-0.035,107.0,104.0,106.0,13.4,1505.2,339.9,-0.7,1.8,2471.321,13.29,0.037,276.2
2023-03-15T00:52:03,42.805,6.029,-0.047,-0.003,-0.036,109.0,107.0,105.0,13.4,1505.2,318.9,-0.8,1.8,2471.312,13.29,0.047,266.4
2023-03-15T00:55:03,42.805,6.029,-0.038,0.021,-0.023,106.0,106.0,104.0,13.3,1505.2,336.8,-0.8,1.8,2471.357,13.29,0.043,298.9
2023-03-15T00:58:03,42.805,6.029,-0.048,0.001,-0.021,107.0,105.0,105.0,13.3,1505.2,317.9,-0.8,1.8,2471.289,13.29,0.048,271.2
2023-03-15T01:04:03,42.805,6.029,-0.031,0.004,0.001,107.0,107.0,106.0,13.4,1505.2,340.9,-0.7,1.9,2471.391,13.28,0.031,277.3
2023-03-15T01:07:02,42.805,6.029,-0.02,-0.017,-0.04,106.0,106.0,105.0,13.4,1505.2,319.3,-0.8,1.8,2471.37,13.28,0.026,229.6
2023-03-15T01:10:03,42.805,6.029,-0.037,-0.003,-0.009,107.0,107.0,104.0,13.4,1505.2,323.6,-0.8,1.8,2471.344,13.29,0.037,265.4
2023-03-15T01:13:03,42.805,6.029,-0.019,0.01,0.019,107.0,106.0,105.0,13.4,1505.2,318.8,-0.8,1.8,2471.364,13.29,0.021,297.8
2023-03-15T01:16:03,42.805,6.029,-0.031,0.023,-0.001,106.0,106.0,104.0,13.3,1505.2,332.0,-0.8,1.8,2471.336,13.29,0.038,306.6
2023-03-15T01:19:03,42.805,6.029,-0.029,0.022,-0.011,108.0,106.0,105.0,13.4,1505.2,339.5,-0.8,1.8,2471.363,13.29,0.036,307.2
2023-03-15T01:22:03,42.805,6.029,-0.043,0.026,-0.028,107.0,107.0,104.0,13.3,1505.2,332.5,-0.8,1.8,2471.331,13.29,0.05,301.2
2023-03-15T01:25:03,42.805,6.029,-0.042,0.0,-0.017,107.0,105.0,105.0,13.3,1505.2,339.4,-0.7,1.8,2471.3,13.29,0.042,270.0
2023-03-15T01:28:03,42.805,6.029,-0.026,0.022,-0.017,107.0,106.0,104.0,13.3,1505.2,327.6,-0.8,1.8,2471.313,13.29,0.034,310.2
2023-03-15T01:31:03,42.805,6.029,-0.028,0.011,0.003,108.0,105.0,105.0,13.4,1505.2,339.5,-0.8,1.8,2471.3,13.29,0.03,291.4
2023-03-15T01:34:03,42.805,6.029,-0.026,-0.007,-0.029,107.0,106.0,105.0,13.4,1505.2,316.1,-0.8,1.8,2471.338,13.29,0.026,254.9
2023-03-15T01:37:03,42.805,6.029,-0.035,0.009,-0.009,107.0,107.0,106.0,13.3,1505.2,332.4,-0.8,1.8,2471.322,13.29,0.036,284.4
2023-03-15T01:40:03,42.805,6.029,-0.031,-0.005,-0.013,107.0,106.0,104.0,13.3,1505.2,323.5,-0.8,1.8,2471.319,13.29,0.031,260.8
2023-03-15T01:43:03,42.805,6.029,-0.036,0.002,-0.038,107.0,106.0,105.0,13.4,1505.2,326.5,-0.8,1.8,2471.284,13.29,0.036,273.2
2023-03-15T01:46:03,42.805,6.029,-0.039,0.013,-0.008,108.0,107.0,104.0,13.3,1505.2,338.2,-0.7,1.8,2471.333,13.29,0.041,288.4
2023-03-15T01:49:03,42.805,6.029,-0.014,0.009,-0.015,107.0,107.0,105.0,13.4,1505.2,325.7,-0.8,1.8,2471.297,13.29,0.016,302.7
2023-03-15T01:52:03,42.805,6.029,-0.039,0.014,-0.021,107.0,108.0,105.0,13.4,1505.2,330.0,-0.8,1.8,2471.304,13.29,0.041,289.7
2023-03-15T01:55:03,42.805,6.029,-0.013,0.003,-0.036,108.0,108.0,105.0,13.4,1505.2,325.8,-0.7,1.8,2471.295,13.29,0.013,283.0
2023-03-15T01:58:03,42.805,6.029,-0.03,-0.005,-0.029,107.0,107.0,104.0,13.4,1505.2,331.1,-0.8,1.8,2471.277,13.29,0.03,260.5
2023-03-15T02:04:03,42.805,6.029,-0.019,0.007,-0.027,108.0,109.0,104.0,13.4,1505.2,339.9,-0.7,1.8,2471.409,13.28,0.02,290.2
2023-03-15T02:07:03,42.805,6.029,-0.02,-0.006,-0.036,108.0,107.0,107.0,13.4,1505.2,333.8,-0.7,1.8,2471.356,13.29,0.02,253.3
2023-03-15T02:10:03,42.805,6.029,-0.032,0.012,-0.033,107.0,107.0,105.0,13.4,1505.2,333.8,-0.8,1.8,2471.378,13.29,0.034,290.6
2023-03-15T02:13:03,42.805,6.029,-0.018,0.0,-0.027,106.0,107.0,105.0,13.3,1505.2,330.1,-0.8,1.8,2471.327,13.29,0.018,270.0
2023-03-15T02:16:03,42.805,6.029,-0.032,0.003,-0.009,107.0,106.0,105.0,13.3,1505.2,321.0,-0.8,1.8,2471.338,13.29,0.032,275.4
2023-03-15T02:19:03,42.805,6.029,-0.027,-0.002,0.008,106.0,105.0,104.0,13.4,1505.2,333.0,-0.7,1.8,2471.308,13.29,0.027,265.8
2023-03-15T02:22:03,42.805,6.029,-0.01,0.017,-0.017,108.0,105.0,105.0,13.4,1505.2,327.1,-0.7,1.8,2471.329,13.29,0.019,329.5
2023-03-15T02:25:03,42.805,6.029,-0.009,0.0,0.018,107.0,106.0,104.0,13.3,1505.2,336.2,-0.7,1.8,2471.292,13.29,0.009,270.0
2023-03-15T02:28:03,42.805,6.029,-0.038,0.013,-0.021,107.0,107.0,105.0,13.4,1505.2,338.9,-0.8,1.8,2471.262,13.29,0.04,288.9
2023-03-15T02:31:03,42.805,6.029,-0.038,0.006,-0.028,106.0,106.0,105.0,13.4,1505.2,333.9,-0.7,1.8,2471.333,13.29,0.038,279.0
2023-03-15T02:34:03,42.805,6.029,-0.022,0.004,0.002,108.0,106.0,105.0,13.4,1505.2,325.2,-0.7,1.8,2471.266,13.29,0.022,280.3
2023-03-15T02:37:03,42.805,6.029,-0.025,-0.011,-0.064,107.0,106.0,104.0,13.4,1505.2,327.1,-0.8,1.8,2471.285,13.29,0.027,246.3
2023-03-15T02:40:03,42.805,6.029,-0.015,0.008,-0.037,107.0,106.0,105.0,13.4,1505.2,338.7,-0.8,1.8,2471.29,13.29,0.017,298.1
2023-03-15T02:43:03,42.805,6.029,-0.019,0.004,-0.038,108.0,108.0,105.0,13.3,1505.2,332.9,-0.7,1.8,2471.289,13.29,0.019,281.9
2023-03-15T02:46:03,42.805,6.029,-0.008,0.001,-0.018,107.0,108.0,105.0,13.4,1505.2,324.5,-0.8,1.8,2471.323,13.29,0.008,277.1
2023-03-15T02:49:03,42.805,6.029,-0.029,-0.022,-0.017,108.0,106.0,106.0,13.4,1505.2,315.0,-0.8,1.8,2471.278,13.29,0.036,232.8
2023-03-15T02:52:03,42.805,6.029,-0.015,-0.007,-0.042,107.0,106.0,105.0,13.3,1505.2,331.6,-0.7,1.8,2471.317,13.29,0.016,245.0
2023-03-15T02:55:03,42.805,6.029,-0.058,-0.003,-0.011,106.0,105.0,105.0,13.4,1505.2,326.0,-0.8,1.9,2471.314,13.29,0.058,267.0
2023-03-15T02:58:03,42.805,6.029,-0.045,-0.001,-0.04,108.0,106.0,104.0,13.3,1505.2,338.2,-0.7,1.8,2471.298,13.29,0.045,268.7
2023-03-15T03:04:03,42.805,6.029,-0.037,-0.014,-0.014,108.0,106.0,104.0,13.3,1505.2,323.1,-0.8,1.8,2471.353,13.28,0.039,249.3
2023-03-15T03:07:03,42.805,6.029,-0.021,0.013,-0.041,108.0,106.0,106.0,13.3,1505.2,338.5,-0.7,1.8,2471.313,13.29,0.024,301.8
2023-03-15T03:10:03,42.805,6.029,-0.015,0.0,-0.02,107.0,105.0,105.0,13.3,1505.2,317.9,-0.8,1.8,2471.344,13.29,0.015,270.0
2023-03-15T03:13:03,42.805,6.029,-0.026,0.015,-0.057,107.0,106.0,104.0,13.4,1505.2,335.7,-0.8,1.8,2471.32,13.29,0.03,300.0
2023-03-15T03:16:03,42.805,6.029,-0.032,0.013,-0.015,106.0,105.0,103.0,13.3,1505.2,341.2,-0.8,1.9,2471.288,13.29,0.034,292.1
2023-03-15T03:19:03,42.805,6.029,-0.019,0.009,-0.01,107.0,107.0,104.0,13.3,1505.2,334.7,-0.8,1.8,2471.29,13.29,0.021,295.3
2023-03-15T03:22:03,42.805,6.029,-0.028,0.0,-0.039,107.0,107.0,104.0,13.4,1505.2,333.0,-0.7,1.8,2471.308,13.29,0.028,270.0
2023-03-15T03:25:03,42.805,6.029,-0.038,-0.002,-0.019,107.0,105.0,104.0,13.4,1505.2,332.5,-0.8,1.8,2471.279,13.29,0.038,267.0
2023-03-15T03:28:03,42.805,6.029,-0.023,0.002,0.0,106.0,106.0,104.0,13.4,1505.2,342.2,-0.8,1.8,2471.298,13.29,0.023,275.0
2023-03-15T03:31:03,42.805,6.029,-0.048,0.021,-0.006,108.0,106.0,108.0,13.3,1505.2,332.1,-0.8,1.8,2471.314,13.29,0.052,293.6
2023-03-15T03:34:03,42.805,6.029,-0.049,0.013,-0.046,108.0,106.0,104.0,13.4,1505.2,335.4,-0.7,1.9,2471.293,13.29,0.05,284.9
2023-03-15T03:37:03,42.805,6.029,-0.011,-0.01,-0.063,107.0,105.0,104.0,13.4,1505.2,323.4,-0.8,1.8,2471.334,13.29,0.014,227.7
2023-03-15T03:40:03,42.805,6.029,-0.045,0.031,0.004,106.0,106.0,105.0,13.3,1505.2,340.3,-0.8,1.8,2471.273,13.29,0.054,304.6
2023-03-15T03:43:03,42.805,6.029,-0.033,-0.006,-0.026,107.0,107.0,104.0,13.4,1505.2,331.1,-0.8,1.8,2471.326,13.29,0.033,259.7
2023-03-15T03:46:03,42.805,6.029,-0.022,0.005,0.0,106.0,107.0,105.0,13.4,1505.2,340.6,-0.8,1.8,2471.331,13.29,0.022,282.8
2023-03-15T03:49:03,42.805,6.029,-0.061,0.011,-0.04,108.0,105.0,104.0,13.3,1505.2,335.6,-0.8,1.8,2471.32,13.29,0.061,280.2
2023-03-15T03:52:03,42.805,6.029,-0.032,0.01,-0.03,107.0,106.0,104.0,13.4,1505.2,334.3,-0.8,1.8,2471.309,13.29,0.033,287.4
2023-03-15T03:55:03,42.805,6.029,-0.015,-0.006,-0.017,107.0,107.0,105.0,13.4,1505.2,336.0,-0.8,1.8,2471.276,13.29,0.016,248.2
2023-03-15T03:58:03,42.805,6.029,-0.028,0.012,-0.026,107.0,106.0,104.0,13.4,1505.2,337.2,-0.8,1.8,2471.281,13.29,0.03,293.2
2023-03-15T04:04:03,42.805,6.029,-0.041,0.029,-0.015,107.0,106.0,105.0,13.4,1505.2,338.5,-0.7,1.8,2471.33,13.28,0.05,305.3
2023-03-15T04:07:03,42.805,6.029,-0.035,0.01,-0.034,107.0,107.0,105.0,13.4,1505.2,326.5,-0.8,1.8,2471.372,13.29,0.036,285.9
2023-03-15T04:10:03,42.805,6.029,-0.026,0.001,-0.02,107.0,106.0,104.0,13.4,1505.2,340.2,-0.7,1.8,2471.328,13.29,0.026,272.2
2023-03-15T04:13:03,42.805,6.029,-0.047,0.002,-0.054,107.0,107.0,105.0,13.3,1505.2,321.3,-0.8,1.8,2471.318,13.29,0.047,272.4
2023-03-15T04:16:03,42.805,6.029,-0.043,0.028,-0.054,107.0,104.0,105.0,13.4,1505.2,342.8,-0.8,1.8,2471.287,13.29,0.051,303.1
2023-03-15T04:19:03,42.805,6.029,-0.036,0.0,-0.028,107.0,107.0,106.0,13.3,1505.2,328.8,-0.8,1.8,2471.279,13.29,0.036,270.0
2023-03-15T04:22:03,42.805,6.029,-0.036,0.018,-0.006,106.0,106.0,105.0,13.4,1505.2,339.9,-0.8,1.8,2471.305,13.29,0.04,296.6
2023-03-15T04:25:03,42.805,6.029,-0.033,-0.005,-0.036,107.0,107.0,105.0,13.4,1505.2,329.5,-0.8,1.8,2471.277,13.29,0.033,261.4
2023-03-15T04:28:03,42.805,6.029,-0.026,-0.003,-0.035,107.0,107.0,104.0,13.4,1505.2,326.0,-0.7,1.8,2471.262,13.29,0.026,263.4
2023-03-15T04:31:03,42.805,6.029,-0.019,-0.007,0.012,107.0,105.0,106.0,13.4,1505.2,336.6,-0.7,1.8,2471.256,13.29,0.02,249.8
2023-03-15T04:34:03,42.805,6.029,-0.043,0.006,-0.035,107.0,105.0,105.0,13.4,1505.2,330.4,-0.8,1.9,2471.261,13.29,0.043,277.9
2023-03-15T04:37:03,42.805,6.029,-0.026,0.013,-0.017,108.0,107.0,105.0,13.3,1505.2,334.6,-0.8,1.9,2471.276,13.29,0.029,296.6
2023-03-15T04:40:03,42.805,6.029,-0.026,-0.019,-0.013,106.0,106.0,105.0,13.3,1505.2,324.8,-0.8,1.8,2471.281,13.29,0.032,233.8
2023-03-15T04:43:03,42.805,6.029,-0.013,-0.018,-0.034,107.0,106.0,105.0,13.4,1505.2,331.9,-0.8,1.8,2471.32,13.29,0.022,215.8
2023-03-15T04:46:03,42.805,6.029,-0.032,-0.013,-0.009,105.0,106.0,105.0,13.3,1505.2,320.5,-0.8,1.8,2471.323,13.29,0.034,247.9
2023-03-15T04:49:03,42.805,6.029,-0.018,-0.005,0.0,106.0,107.0,106.0,13.4,1505.2,335.9,-0.8,1.8,2471.258,13.29,0.018,254.5
2023-03-15T04:52:03,42.805,6.029,-0.02,0.008,-0.014,106.0,106.0,104.0,13.4,1505.2,333.8,-0.8,1.8,2471.282,13.29,0.021,291.8
2023-03-15T04:55:03,42.805,6.029,-0.048,-0.007,-0.027,106.0,105.0,104.0,13.4,1505.2,325.2,-0.7,1.8,2471.306,13.29,0.048,261.7
2023-03-15T04:58:03,42.805,6.029,-0.045,-0.007,-0.011,107.0,105.0,104.0,13.3,1505.2,341.8,-0.8,1.8,2471.324,13.29,0.045,261.2
2023-03-15T05:04:03,42.805,6.029,-0.024,0.015,-0.034,105.0,106.0,105.0,13.4,1505.2,338.5,-0.8,1.8,2471.302,13.28,0.028,302.0
2023-03-15T05:07:03,42.805,6.029,-0.027,0.006,-0.011,107.0,105.0,104.0,13.4,1505.2,329.7,-0.8,1.8,2471.299,13.28,0.027,282.5
2023-03-15T05:10:03,42.805,6.029,-0.024,-0.004,-0.02,107.0,105.0,104.0,13.3,1505.2,335.9,-0.8,1.8,2471.289,13.28,0.024,260.5
2023-03-15T05:13:03,42.805,6.029,-0.046,-0.007,-0.024,108.0,105.0,105.0,13.4,1505.2,331.2,-0.7,1.8,2471.285,13.29,0.046,261.3
2023-03-15T05:16:03,42.805,6.029,-0.033,-0.005,-0.017,108.0,106.0,105.0,13.3,1505.2,326.0,-0.8,1.8,2471.332,13.29,0.033,261.4
2023-03-15T05:19:03,42.805,6.029,-0.038,-0.005,-0.056,106.0,105.0,105.0,13.4,1505.2,318.5,-0.7,1.8,2471.274,13.29,0.038,262.5
2023-03-15T05:22:03,42.805,6.029,-0.024,0.014,-0.019,106.0,107.0,104.0,13.4,1505.2,339.1,-0.8,1.8,2471.319,13.29,0.027,300.3
2023-03-15T05:25:03,42.805,6.029,-0.002,-0.01,-0.027,106.0,105.0,104.0,13.3,1505.2,325.5,-0.8,1.8,2471.268,13.29,0.01,191.3
2023-03-15T05:28:03,42.805,6.029,-0.053,0.001,-0.028,106.0,106.0,104.0,13.4,1505.2,329.5,-0.7,1.8,2471.263,13.29,0.053,271.1
2023-03-15T05:31:03,42.805,6.029,-0.041,0.012,-0.043,106.0,105.0,104.0,13.4,1505.2,319.9,-0.7,1.8,2471.262,13.29,0.042,286.3
2023-03-15T05:34:03,42.805,6.029,-0.038,-0.003,-0.023,106.0,106.0,103.0,13.4,1505.2,329.3,-0.8,1.8,2471.262,13.29,0.038,265.5
2023-03-15T05:37:03,42.805,6.029,-0.031,0.0,-0.049,107.0,106.0,105.0,13.3,1505.2,321.2,-0.7,1.8,2471.263,13.29,0.03,270.0
2023-03-15T05:40:03,42.805,6.029,-0.035,-0.002,-0.039,107.0,106.0,104.0,13.4,1505.2,339.9,-0.8,1.8,2471.249,13.29,0.035,266.7
2023-03-15T05:43:03,42.805,6.029,-0.048,-0.001,-0.017,107.0,107.0,104.0,13.3,1505.2,329.7,-0.8,1.8,2471.256,13.29,0.048,268.8
2023-03-15T05:46:03,42.805,6.029,-0.039,0.014,-0.022,106.0,105.0,104.0,13.4,1505.2,339.1,-0.7,1.8,2471.262,13.29,0.041,289.7
2023-03-15T05:49:03,42.805,6.029,-0.056,-0.032,-0.052,105.0,106.0,105.0,13.4,1505.2,316.7,-0.8,1.8,2471.246,13.29,0.064,240.3
2023-03-15T05:52:03,42.805,6.029,-0.052,0.0,-0.042,106.0,105.0,104.0,13.4,1505.2,335.2,-0.8,1.8,2471.255,13.29,0.052,270.0
2023-03-15T05:55:03,42.805,6.029,-0.052,0.024,-0.034,106.0,105.0,104.0,13.4,1505.2,336.6,-0.7,1.8,2471.221,13.29,0.057,294.8
2023-03-15T05:58:03,42.805,6.029,-0.035,-0.013,-0.021,107.0,105.0,105.0,13.4,1505.2,324.7,-0.8,1.8,2471.257,13.29,0.037,249.6
2023-03-15T06:04:03,42.805,6.029,-0.042,0.002,-0.02,107.0,106.0,104.0,13.4,1505.2,324.9,-0.8,1.8,2471.273,13.28,0.042,272.7
2023-03-15T06:07:03,42.805,6.029,-0.034,-0.023,-0.027,106.0,108.0,104.0,13.4,1505.2,319.4,-0.8,1.8,2471.275,13.28,0.041,235.9
2023-03-15T06:10:03,42.805,6.029,-0.048,0.007,0.002,107.0,105.0,105.0,13.3,1505.2,331.1,-0.8,1.8,2471.268,13.28,0.048,278.3
2023-03-15T06:13:03,42.805,6.029,-0.044,0.009,-0.031,106.0,105.0,105.0,13.3,1505.2,338.2,-0.7,1.8,2471.276,13.29,0.044,281.6
2023-03-15T06:16:03,42.805,6.029,-0.034,0.005,-0.029,106.0,106.0,104.0,13.3,1505.2,331.6,-0.8,1.8,2471.233,13.29,0.034,278.4
2023-03-15T06:19:03,42.805,6.029,-0.05,0.0,0.015,106.0,105.0,104.0,13.4,1505.2,316.1,-0.8,1.8,2471.255,13.29,0.05,270.0
2023-03-15T06:22:03,42.805,6.029,-0.044,-0.01,-0.018,106.0,105.0,104.0,13.3,1505.2,329.8,-0.8,1.9,2471.286,13.29,0.045,257.2
2023-03-15T06:25:03,42.805,6.029,-0.029,0.008,-0.031,107.0,105.0,104.0,13.3,1505.2,327.6,-0.8,1.8,2471.218,13.29,0.03,285.4
2023-03-15T06:28:03,42.805,6.029,-0.04,-0.007,-0.022,106.0,104.0,104.0,13.3,1505.2,328.8,-0.8,1.8,2471.235,13.29,0.04,260.1
2023-03-15T06:31:03,42.805,6.029,-0.015,-0.008,-0.013,108.0,106.0,105.0,13.4,1505.2,322.0,-0.7,1.8,2471.229,13.29,0.017,241.9
2023-03-15T06:34:03,42.805,6.029,-0.038,-0.01,-0.036,106.0,105.0,104.0,13.4,1505.2,331.6,-0.8,1.8,2471.191,13.29,0.039,255.3
2023-03-15T06:37:03,42.805,6.029,-0.034,0.008,-0.01,107.0,106.0,104.0,13.3,1505.2,324.1,-0.7,1.8,2471.197,13.29,0.034,283.2
2023-03-15T06:40:03,42.805,6.029,-0.029,-0.004,-0.04,106.0,105.0,104.0,13.3,1505.2,336.4,-0.8,1.8,2471.214,13.29,0.029,262.2
2023-03-15T06:43:03,42.805,6.029,-0.035,-0.007,-0.024,104.0,107.0,104.0,13.4,1505.2,326.0,-0.8,1.9,2471.249,13.29,0.035,258.7
2023-03-15T06:46:03,42.805,6.029,-0.047,-0.022,-0.044,109.0,106.0,104.0,13.4,1505.2,325.3,-0.8,1.8,2471.222,13.29,0.051,244.9
2023-03-15T06:49:03,42.805,6.029,-0.031,0.002,-0.004,105.0,105.0,104.0,13.4,1505.2,328.3,-0.7,1.8,2471.243,13.29,0.031,273.7
2023-03-15T06:52:03,42.805,6.029,-0.053,-0.019,-0.043,106.0,105.0,103.0,13.4,1505.2,328.6,-0.8,1.8,2471.265,13.29,0.056,250.3
2023-03-15T06:55:03,42.805,6.029,-0.039,0.0,-0.03,107.0,106.0,104.0,13.4,1505.2,329.1,-0.8,1.8,2471.188,13.29,0.039,270.0
2023-03-15T06:58:03,42.805,6.029,-0.053,0.003,-0.023,107.0,106.0,105.0,13.3,1505.2,339.6,-0.8,1.9,2471.198,13.29,0.053,273.2
2023-03-15T07:04:03,42.805,6.029,-0.04,0.013,0.008,108.0,107.0,104.0,13.3,1505.2,336.3,-0.8,1.8,2471.291,13.28,0.042,288.0
2023-03-15T07:07:03,42.805,6.029,-0.031,-0.007,-0.029,106.0,106.0,103.0,13.3,1505.2,329.6,-0.7,1.8,2471.286,13.28,0.031,257.3
2023-03-15T07:10:03,42.805,6.029,-0.029,-0.004,-0.042,106.0,105.0,104.0,13.4,1505.2,332.9,-0.7,1.8,2471.248,13.28,0.029,262.2
2023-03-15T07:13:03,42.805,6.029,-0.038,-0.005,-0.025,107.0,106.0,104.0,13.4,1505.2,330.2,-0.7,1.8,2471.242,13.29,0.038,262.5
2023-03-15T07:16:03,42.805,6.029,-0.043,0.004,-0.04,105.0,105.0,104.0,13.4,1505.2,326.5,-0.8,1.8,2471.268,13.29,0.043,275.3
2023-03-15T07:19:03,42.805,6.029,-0.049,0.0,-0.043,107.0,107.0,104.0,13.4,1505.2,327.8,-0.8,1.8,2471.247,13.29,0.049,270.0
2023-03-15T07:22:03,42.805,6.029,-0.045,-0.011,-0.014,105.0,104.0,105.0,13.4,1505.2,337.8,-0.8,1.8,2471.289,13.29,0.046,256.3
2023-03-15T07:25:03,42.805,6.029,-0.044,-0.007,-0.013,107.0,106.0,105.0,13.4,1505.2,326.0,-0.7,1.8,2471.227,13.29,0.044,261.0
2023-03-15T07:28:03,42.805,6.029,-0.045,0.004,-0.01,105.0,104.0,105.0,13.4,1505.2,323.9,-0.7,1.8,2471.234,13.29,0.045,275.1
2023-03-15T07:31:03,42.805,6.029,-0.042,0.005,-0.044,106.0,105.0,104.0,13.4,1505.2,330.1,-0.8,1.8,2471.234,13.29,0.042,276.8
2023-03-15T07:34:03,42.805,6.029,-0.041,-0.004,-0.03,105.0,105.0,104.0,13.4,1505.2,333.4,-0.7,1.8,2471.238,13.29,0.041,264.4
2023-03-15T07:37:03,42.805,6.029,-0.036,-0.004,-0.008,106.0,105.0,102.0,13.4,1505.2,333.4,-0.8,1.8,2471.261,13.29,0.036,263.7
2023-03-15T07:40:03,42.805,6.029,-0.037,0.003,-0.026,105.0,105.0,104.0,13.4,1505.2,332.9,-0.8,1.9,2471.263,13.29,0.037,274.6
2023-03-15T07:43:03,42.805,6.029,-0.056,-0.01,-0.045,106.0,105.0,105.0,13.4,1505.2,326.0,-0.8,1.8,2471.244,13.29,0.056,259.9
2023-03-15T07:46:03,42.805,6.029,-0.049,0.001,-0.022,106.0,105.0,103.0,13.4,1505.2,324.8,-0.7,1.8,2471.231,13.29,0.049,271.2
2023-03-15T07:49:03,42.805,6.029,-0.063,0.01,-0.054,106.0,104.0,105.0,13.4,1505.2,340.6,-0.7,1.8,2471.265,13.29,0.063,279.0
2023-03-15T07:52:03,42.805,6.029,-0.043,-0.025,-0.013,105.0,105.0,104.0,13.4,1505.2,322.3,-0.8,1.8,2471.258,13.29,0.049,239.8
2023-03-15T07:55:03,42.805,6.029,-0.046,-0.006,-0.047,107.0,105.0,104.0,13.4,1505.2,326.8,-0.8,1.8,2471.266,13.29,0.046,262.6
2023-03-15T07:58:03,42.805,6.029,-0.044,0.006,-0.036,106.0,104.0,103.0,13.4,1505.2,331.8,-0.8,1.8,2471.228,13.29,0.044,277.8
2023-03-15T08:04:03,42.805,6.029,-0.026,0.007,-0.04,107.0,105.0,104.0,13.4,1505.2,341.5,-0.8,1.8,2471.316,13.28,0.026,285.1
2023-03-15T08:07:03,42.805,6.029,-0.041,0.0,-0.049,108.0,105.0,103.0,13.4,1505.2,329.8,-0.8,1.8,2471.263,13.28,0.041,270.0
2023-03-15T08:10:03,42.805,6.029,-0.036,-0.005,-0.027,108.0,105.0,104.0,13.4,1505.2,340.9,-0.8,1.8,2471.292,13.28,0.036,262.1
2023-03-15T08:13:03,42.805,6.029,-0.043,-0.004,-0.034,106.0,107.0,104.0,13.4,1505.2,332.3,-0.8,1.8,2471.283,13.29,0.043,264.7
2023-03-15T08:16:03,42.805,6.029,-0.032,-0.006,-0.026,105.0,106.0,106.0,13.4,1505.2,327.2,-0.7,1.8,2471.269,13.29,0.032,259.4
2023-03-15T08:19:03,42.805,6.029,-0.046,-0.018,-0.013,106.0,106.0,108.0,13.4,1505.2,328.8,-0.8,1.8,2471.248,13.29,0.049,248.6
2023-03-15T08:22:03,42.805,6.029,-0.021,0.002,-0.019,105.0,105.0,104.0,13.4,1505.2,338.3,-0.8,1.8,2471.23,13.29,0.021,275.4
2023-03-15T08:25:03,42.805,6.029,-0.037,-0.005,-0.043,105.0,105.0,103.0,13.4,1505.2,327.7,-0.8,1.8,2471.24,13.29,0.037,262.3
2023-03-15T08:28:03,42.805,6.029,-0.025,-0.002,0.018,106.0,105.0,104.0,13.3,1505.2,340.6,-0.8,1.8,2471.242,13.29,0.025,265.4
2023-03-15T08:31:03,42.805,6.029,-0.017,-0.013,-0.043,106.0,104.0,104.0,13.3,1505.2,315.0,-0.8,1.8,2471.232,13.29,0.021,232.6
2023-03-15T08:34:03,42.805,6.029,-0.031,0.002,0.001,106.0,105.0,104.0,13.3,1505.2,331.1,-0.7,1.8,2471.261,13.29,0.031,273.7
2023-03-15T08:37:03,42.805,6.029,-0.029,-0.003,-0.01,106.0,106.0,104.0,13.4,1505.2,333.8,-0.8,1.8,2471.22,13.29,0.029,264.1
2023-03-15T08:40:03,42.805,6.029,-0.027,-0.001,-0.008,106.0,106.0,105.0,13.4,1505.2,335.4,-0.8,1.8,2471.245,13.29,0.027,267.9
2023-03-15T08:43:03,42.805,6.029,-0.028,-0.001,-0.033,106.0,106.0,105.0,13.3,1505.2,324.3,-0.8,1.8,2471.232,13.29,0.028,268.0
2023-03-15T08:46:03,42.805,6.029,-0.021,-0.008,-0.017,106.0,104.0,104.0,13.3,1505.2,328.7,-0.8,1.8,2471.225,13.29,0.022,249.1
2023-03-15T08:49:03,42.805,6.029,-0.055,0.001,-0.043,106.0,107.0,104.0,13.4,1505.2,324.6,-0.8,1.8,2471.262,13.29,0.055,271.0
2023-03-15T08:52:03,42.805,6.029,-0.025,-0.012,-0.032,106.0,106.0,104.0,13.4,1505.2,317.4,-0.8,1.8,2471.24,13.29,0.027,244.4
2023-03-15T08:55:03,42.805,6.029,-0.044,-0.002,-0.004,106.0,106.0,105.0,13.3,1505.2,329.2,-0.8,1.8,2471.295,13.29,0.044,267.4
2023-03-15T08:58:03,42.805,6.029,-0.059,-0.001,-0.021,105.0,105.0,103.0,13.3,1505.2,333.4,-0.8,1.8,2471.28,13.29,0.059,269.0
2023-03-15T09:04:03,42.805,6.029,-0.051,-0.023,-0.018,106.0,106.0,104.0,13.4,1505.2,319.4,-0.8,1.8,2471.285,13.28,0.055,245.7
2023-03-15T09:07:03,42.805,6.029,-0.073,-0.009,-0.021,106.0,105.0,103.0,13.4,1505.2,330.1,-0.8,1.8,2471.323,13.28,0.073,263.0
2023-03-15T09:10:03,42.805,6.029,-0.06,0.002,-0.024,107.0,105.0,104.0,13.3,1505.2,323.9,-0.8,1.8,2471.29,13.28,0.06,271.9
2023-03-15T09:13:03,42.805,6.029,-0.053,-0.003,-0.043,106.0,106.0,103.0,13.4,1505.2,330.5,-0.8,1.8,2471.289,13.29,0.053,266.8
2023-03-15T09:16:03,42.805,6.029,-0.056,-0.006,-0.048,106.0,105.0,103.0,13.4,1505.2,339.1,-0.7,1.8,2471.243,13.29,0.056,263.9
2023-03-15T09:19:03,42.805,6.029,-0.043,0.012,-0.05,105.0,105.0,104.0,13.4,1505.2,330.4,-0.8,1.8,2471.243,13.29,0.044,285.6
2023-03-15T09:22:03,42.805,6.029,-0.047,0.006,-0.027,106.0,105.0,104.0,13.4,1505.2,329.6,-0.8,1.8,2471.3,13.29,0.047,277.3
2023-03-15T09:25:03,42.805,6.029,-0.031,0.0,-0.042,106.0,104.0,104.0,13.4,1505.2,326.3,-0.7,1.8,2471.269,13.29,0.03,270.0
2023-03-15T09:28:03,42.805,6.029,-0.047,-0.006,-0.029,106.0,104.0,104.0,13.3,1505.2,336.8,-0.7,1.8,2471.245,13.29,0.047,262.7
2023-03-15T09:31:03,42.805,6.029,-0.052,0.016,-0.044,106.0,105.0,104.0,13.4,1505.2,330.0,-0.8,1.8,2471.246,13.29,0.054,287.1
2023-03-15T09:34:03,42.805,6.029,-0.044,-0.01,-0.057,106.0,105.0,103.0,13.4,1505.2,323.8,-0.7,1.8,2471.247,13.29,0.045,257.2
2023-03-15T09:37:03,42.805,6.029,-0.054,0.003,-0.005,106.0,105.0,104.0,13.4,1505.2,321.7,-0.8,1.8,2471.258,13.29,0.054,273.2
2023-03-15T09:40:03,42.805,6.029,-0.035,0.001,-0.04,106.0,106.0,103.0,13.4,1505.2,328.4,-0.8,1.8,2471.244,13.29,0.035,271.6
2023-03-15T09:43:03,42.805,6.029,-0.058,0.016,-0.024,106.0,105.0,104.0,13.4,1505.2,331.0,-0.7,1.8,2471.232,13.29,0.06,285.4
2023-03-15T09:46:03,42.805,6.029,-0.025,-0.02,0.001,104.0,104.0,104.0,13.3,1505.2,318.5,-0.7,1.8,2471.263,13.29,0.032,231.3
2023-03-15T09:49:03,42.805,6.029,-0.048,-0.009,-0.028,107.0,105.0,105.0,13.4,1505.2,325.0,-0.7,1.8,2471.238,13.29,0.048,259.4
2023-03-15T09:52:03,42.805,6.029,-0.046,0.007,-0.02,105.0,105.0,106.0,13.3,1505.2,319.2,-0.8,1.8,2471.266,13.29,0.046,278.7